• In Uzbekistan
  • List of Countries
  • For 7 days
  • Water Temperature
  • Satellite Maps
  • Weather Map
  • Weather Widgets
  • user-avatar
    Login

    Hourly Weather Hamilton

    Today, 22 February, Friday

    Time Temperature Precipitation Wind Pressure Humidity
    00:00 +20°C° 0 mm 1 mps 759 mmHg 95%
    01:00 +20°C° 0 mm 1 mps 759 mmHg 96%
    02:00 +20°C° 0 mm 1 mps 759 mmHg 96%
    03:00 +20°C° 0 mm 1 mps 759 mmHg 97%
    04:00 +20°C° 0.1 mm 1 mps 759 mmHg 97%
    05:00 +20°C° 0.1 mm 1 mps 759 mmHg 98%
    06:00 +20°C° 0 mm 1 mps 758 mmHg 97%
    07:00 +20°C° 0.1 mm 2 mps 758 mmHg 93%
    08:00 +21°C° 0.1 mm 2 mps 758 mmHg 88%
    09:00 +23°C° 0.1 mm 2 mps 758 mmHg 83%
    10:00 +23°C° 0.9 mm 2 mps 758 mmHg 86%
    11:00 +22°C° 0.9 mm 1 mps 758 mmHg 89%
    12:00 +22°C° 0 mm 1 mps 758 mmHg 94%
    13:00 +21°C° 0.6 mm 2 mps 758 mmHg 93%
    14:00 +23°C° 0.6 mm 2 mps 757 mmHg 92%
    15:00 +23°C° 0.6 mm 2 mps 757 mmHg 91%
    16:00 +21°C° 0.7 mm 2 mps 757 mmHg 93%
    17:00 +21°C° 0.7 mm 2 mps 756 mmHg 95%
    18:00 +20°C° 0 mm 2 mps 756 mmHg 97%
    19:00 +20°C° 1.1 mm 2 mps 756 mmHg 97%
    20:00 +20°C° 1.1 mm 2 mps 755 mmHg 98%
    21:00 +20°C° 1.1 mm 1 mps 755 mmHg 98%
    22:00 +20°C° 0.8 mm 1 mps 755 mmHg 98%
    23:00 +20°C° 0.8 mm 1 mps 755 mmHg 98%

    Tomorrow, 23 February, Saturday

    Time Temperature Precipitation Wind Pressure Humidity
    00:00 +20°C° 0.8 mm 1 mps 754 mmHg 98%
    01:00 +20°C° 0.8 mm 1 mps 754 mmHg 98%
    02:00 +20°C° 0.8 mm 1 mps 753 mmHg 98%
    03:00 +20°C° 0.8 mm 1 mps 752 mmHg 98%
    04:00 +20°C° 0.6 mm 1 mps 752 mmHg 98%
    05:00 +20°C° 0.6 mm 1 mps 752 mmHg 98%
    06:00 +20°C° 0.6 mm 1 mps 751 mmHg 98%
    07:00 +21°C° 0.2 mm 1 mps 751 mmHg 98%
    08:00 +21°C° 0.2 mm 1 mps 751 mmHg 97%
    09:00 +22°C° 0.2 mm 1 mps 751 mmHg 96%
    10:00 +21°C° 0.1 mm 2 mps 750 mmHg 90%
    11:00 +23°C° 0.1 mm 2 mps 750 mmHg 84%
    12:00 +24°C° 0.1 mm 3 mps 750 mmHg 78%
    13:00 +24°C° 0 mm 3 mps 750 mmHg 71%
    14:00 +23°C° 0 mm 4 mps 749 mmHg 63%
    15:00 +23°C° 0 mm 4 mps 749 mmHg 56%
    16:00 +22°C° 0 mm 4 mps 749 mmHg 59%
    17:00 +21°C° 0 mm 4 mps 749 mmHg 62%
    18:00 +20°C° 0 mm 4 mps 749 mmHg 65%
    19:00 +18°C° 0 mm 3 mps 749 mmHg 70%
    20:00 +17°C° 0 mm 3 mps 749 mmHg 75%
    21:00 +16°C° 0 mm 2 mps 749 mmHg 80%
    22:00 +15°C° 0 mm 2 mps 749 mmHg 81%
    23:00 +15°C° 0 mm 2 mps 749 mmHg 83%

    Day after tomorrow, 24 February, Sunday

    Time Temperature Precipitation Wind Pressure Humidity
    00:00 +14°C° 0 mm 1 mps 749 mmHg 85%
    01:00 +14°C° 0 mm 1 mps 748 mmHg 86%
    02:00 +14°C° 0 mm 1 mps 748 mmHg 87%
    03:00 +13°C° 0 mm 0 mps 748 mmHg 87%
    04:00 +14°C° 0.1 mm 1 mps 747 mmHg 88%
    05:00 +14°C° 0.1 mm 1 mps 747 mmHg 89%
    06:00 +14°C° 0.1 mm 1 mps 746 mmHg 90%
    07:00 +15°C° 1.1 mm 1 mps 746 mmHg 91%
    08:00 +15°C° 1.1 mm 1 mps 746 mmHg 92%
    09:00 +16°C° 1.1 mm 1 mps 747 mmHg 93%
    10:00 +18°C° 0.3 mm 3 mps 747 mmHg 80%
    11:00 +19°C° 0.3 mm 4 mps 746 mmHg 67%
    12:00 +21°C° 0.3 mm 5 mps 746 mmHg 54%
    13:00 +21°C° 0.2 mm 5 mps 746 mmHg 53%
    14:00 +21°C° 0.2 mm 5 mps 746 mmHg 52%
    15:00 +21°C° 0.2 mm 5 mps 746 mmHg 51%
    16:00 +20°C° 0.1 mm 4 mps 746 mmHg 54%
    17:00 +19°C° 0.1 mm 4 mps 746 mmHg 58%
    18:00 +19°C° 0.1 mm 3 mps 746 mmHg 61%
    19:00 +17°C° 0 mm 2 mps 747 mmHg 69%
    20:00 +15°C° 0 mm 2 mps 749 mmHg 78%
    21:00 +13°C° 0 mm 2 mps 750 mmHg 87%
    22:00 +13°C° 0 mm 2 mps 750 mmHg 83%
    23:00 +13°C° 0 mm 2 mps 751 mmHg 79%

    25 February, Monday

    Time Temperature Precipitation Wind Pressure Humidity
    00:00 +12°C° 0 mm 3 mps 752 mmHg 76%
    01:00 +12°C° 0 mm 3 mps 752 mmHg 72%
    02:00 +13°C° 0 mm 3 mps 753 mmHg 69%
    03:00 +13°C° 0 mm 3 mps 753 mmHg 66%
    04:00 +13°C° 0 mm 3 mps 754 mmHg 64%
    05:00 +13°C° 0 mm 3 mps 755 mmHg 62%
    06:00 +13°C° 0 mm 3 mps 756 mmHg 61%
    07:00 +14°C° 0 mm 3 mps 756 mmHg 56%
    08:00 +15°C° 0 mm 4 mps 757 mmHg 51%
    09:00 +18°C° 0 mm 4 mps 758 mmHg 46%
    10:00 +19°C° 0 mm 4 mps 758 mmHg 42%
    11:00 +21°C° 0 mm 4 mps 759 mmHg 38%
    12:00 +22°C° 0 mm 3 mps 759 mmHg 34%
    13:00 +24°C° 0 mm 3 mps 759 mmHg 33%
    14:00 +24°C° 0 mm 3 mps 759 mmHg 31%
    15:00 +25°C° 0 mm 3 mps 759 mmHg 30%
    16:00 +24°C° 0 mm 3 mps 759 mmHg 34%
    17:00 +22°C° 0 mm 3 mps 760 mmHg 38%
    18:00 +21°C° 0 mm 2 mps 760 mmHg 42%
    19:00 +19°C° 0 mm 2 mps 761 mmHg 45%
    20:00 +17°C° 0 mm 2 mps 762 mmHg 47%
    21:00 +14°C° 0 mm 3 mps 763 mmHg 50%
    22:00 +14°C° 0 mm 2 mps 763 mmHg 55%
    23:00 +13°C° 0 mm 2 mps 764 mmHg 60%

    26 February, Tuesday

    Time Temperature Precipitation Wind Pressure Humidity
    00:00 +12°C° 0 mm 2 mps 764 mmHg 65%
    01:00 +10°C° 0 mm 2 mps 764 mmHg 70%
    02:00 +10°C° 0 mm 1 mps 764 mmHg 75%
    03:00 +9°C° 0 mm 1 mps 764 mmHg 80%
    04:00 +9°C° 0 mm 1 mps 764 mmHg 82%
    05:00 +9°C° 0 mm 1 mps 764 mmHg 84%
    06:00 +8°C° 0 mm 1 mps 764 mmHg 85%
    07:00 +11°C° 0 mm 1 mps 765 mmHg 75%
    08:00 +14°C° 0 mm 1 mps 765 mmHg 65%
    09:00 +18°C° 0 mm 1 mps 765 mmHg 54%
    10:00 +20°C° 0 mm 1 mps 765 mmHg 47%
    11:00 +21°C° 0 mm 2 mps 765 mmHg 40%
    12:00 +23°C° 0 mm 2 mps 765 mmHg 33%
    13:00 +24°C° 0 mm 2 mps 765 mmHg 32%
    14:00 +24°C° 0 mm 2 mps 764 mmHg 31%
    15:00 +25°C° 0 mm 3 mps 764 mmHg 30%
    16:00 +22°C° 0 mm 3 mps 764 mmHg 37%
    17:00 +21°C° 0 mm 3 mps 764 mmHg 44%
    18:00 +20°C° 0 mm 3 mps 764 mmHg 50%
    19:00 +18°C° 0 mm 2 mps 764 mmHg 62%
    20:00 +15°C° 0 mm 2 mps 765 mmHg 73%
    21:00 +13°C° 0 mm 1 mps 765 mmHg 84%
    22:00 +13°C° 0 mm 1 mps 765 mmHg 87%
    23:00 +11°C° 0 mm 0 mps 765 mmHg 89%

    27 February, Wednesday

    Time Temperature Precipitation Wind Pressure Humidity
    00:00 +10°C° 0 mm 0 mps 765 mmHg 91%
    01:00 +10°C° 0 mm 0 mps 765 mmHg 93%
    02:00 +10°C° 0 mm 0 mps 765 mmHg 94%
    03:00 +9°C° 0 mm 0 mps 765 mmHg 95%
    04:00 +9°C° 0 mm 0 mps 765 mmHg 95%
    05:00 +9°C° 0 mm 0 mps 765 mmHg 96%
    06:00 +9°C° 0 mm 0 mps 765 mmHg 96%
    07:00 +11°C° 0 mm 0 mps 765 mmHg 87%
    08:00 +14°C° 0 mm 0 mps 765 mmHg 78%
    09:00 +17°C° 0 mm 0 mps 765 mmHg 68%
    10:00 +21°C° 0 mm 1 mps 764 mmHg 59%
    11:00 +23°C° 0 mm 1 mps 764 mmHg 50%
    12:00 +25°C° 0 mm 2 mps 764 mmHg 41%
    13:00 +25°C° 0 mm 3 mps 763 mmHg 40%
    14:00 +25°C° 0 mm 3 mps 762 mmHg 39%
    15:00 +25°C° 0 mm 4 mps 762 mmHg 38%
    16:00 +24°C° 0 mm 3 mps 762 mmHg 43%
    17:00 +22°C° 0 mm 3 mps 762 mmHg 49%
    18:00 +20°C° 0 mm 3 mps 762 mmHg 54%
    19:00 +18°C° 0 mm 2 mps 762 mmHg 64%
    20:00 +16°C° 0 mm 1 mps 762 mmHg 74%
    21:00 +13°C° 0 mm 1 mps 763 mmHg 84%
    22:00 +13°C° 0 mm 1 mps 763 mmHg 86%
    23:00 +12°C° 0 mm 1 mps 762 mmHg 88%
    Show more